Hourly Data Report for April 20, 2017

KENORA A
ONTARIO

49°47'18.000" N
94°21'47.000" W
409.70 m
6034076
71850
YQK

Download Data

Hourly Data (April 2017)
Hourly Data Report for April 20, 2017
TIME
LST
Temp Definition
°C
Dew Point Definition
°C
Rel Hum Definition
%
Precip. Amount Definition
mm

Wind Dir Definition
10's deg

Wind Spd Definition
km/h
Visibility Definition
km
Stn Press Definition
kPa
Hmdx Definition


Wind Chill Definition


Weather Definition


00:00 5.7 -0.4 65   12 8 24.1 97.01     Cloudy
01:00 5.1 -0.3 68   12 9 24.1 97.04     LegendNANA
02:00 5.0 -0.4 68   12 14 24.1 97.03     LegendNANA
03:00 4.7 -0.3 70   14 11 24.1 97.01     Cloudy
04:00 4.3 0.1 74   13 11 24.1 96.98     LegendNANA
05:00 3.4 -0.1 78   8 8 24.1 96.97     LegendNANA
06:00 3.7 0.1 77   12 8 24.1 96.97     Cloudy
07:00 4.0 0.5 78   11 8 24.1 96.98     LegendNANA
08:00 4.8 0.6 74   11 7 24.1 96.99     LegendNANA
09:00 5.9 0.1 66   6 6 24.1 96.98     Cloudy
10:00 7.0 0.5 63   10 4 24.1 97.01     LegendNANA
11:00 8.2 -0.8 53   34 10 24.1 96.96     LegendNANA
12:00 10.0 -0.8 47   10 8 24.1 96.91     Mostly Cloudy
13:00 11.4 -0.1 45   4 9 24.1 96.84     LegendNANA
14:00 11.7 0.2 45   5 8 24.1 96.80     LegendNANA
15:00 11.4 -2.0 39   6 9 24.1 96.78     Mostly Cloudy
16:00 12.1 -3.3 34   2 15 24.1 96.81     LegendNANA
17:00 11.8 -3.5 34   5 14 24.1 96.84     LegendNANA
18:00 11.7 -2.5 37   6 8 24.1 96.86     Mostly Cloudy
19:00 10.0 0.9 53   36 19 24.1 96.93     LegendNANA
20:00 8.9 1.8 61   1 11 24.1 97.01     LegendNANA
21:00 8.4 2.0 64   3 10 24.1 97.07     Cloudy
22:00 7.6 1.9 67   36 9 24.1 97.11     LegendNANA
23:00 6.4 1.7 72   1 8 24.1 97.14     LegendNANA

Notes on Data Quality.

Legend

  • E = Estimated
  • M = Missing
  • NA = Not Available*
  • [empty] = Indicates an unobserved value
Date modified: